| time (UTC) | temp F | wind direction | speed MPH | gust MPH | rain 1hr in | rain 24hr in | rain mn in | humidity % | barometer mb |
| 20260504231535 | 47 | 256 | 1.0 | 3.0 | 0.00 | 0.00 | 0.00 | 79 | 1015.3 |
| 20260504231030 | 47 | 233 | 1.0 | 3.0 | 0.00 | 0.00 | 0.00 | 79 | 1015.4 |
| 20260504230530 | 47 | 278 | 0.0 | 4.0 | 0.00 | 0.00 | 0.00 | 79 | 1015.4 |
| 20260504230035 | 48 | 267 | 1.0 | 4.0 | 0.00 | 0.00 | 0.00 | 79 | 1015.3 |
| 20260504225532 | 48 | 271 | 0.0 | 6.0 | 0.00 | 0.00 | 0.00 | 78 | 1015.4 |
| 20260504225030 | 48 | 323 | 1.0 | 7.0 | 0.00 | 0.00 | 0.00 | 78 | 1015.5 |
| 20260504224534 | 48 | 272 | 3.0 | 7.0 | 0.00 | 0.00 | 0.00 | 78 | 1015.5 |
| 20260504224030 | 48 | 286 | 1.0 | 6.0 | 0.00 | 0.00 | 0.00 | 78 | 1015.5 |
| 20260504223531 | 48 | 281 | 2.0 | 6.0 | 0.00 | 0.00 | 0.00 | 78 | 1015.5 |
| 20260504223040 | 48 | 289 | 2.0 | 6.0 | 0.00 | 0.00 | 0.00 | 78 | 1015.5 |
| 20260504222533 | 48 | 326 | 2.0 | 6.0 | 0.00 | 0.00 | 0.00 | 78 | 1015.6 |
| 20260504222030 | 49 | 238 | 3.0 | 7.0 | 0.00 | 0.00 | 0.00 | 78 | 1015.5 |
| 20260504221548 | 49 | 253 | 3.0 | 7.0 | 0.00 | 0.00 | 0.00 | 77 | 1015.5 |
| 20260504221031 | 49 | 277 | 3.0 | 7.0 | 0.00 | 0.00 | 0.00 | 77 | 1015.3 |
| 20260504220533 | 49 | 275 | 2.0 | 7.0 | 0.00 | 0.00 | 0.00 | 77 | 1015.5 |
| 20260504220047 | 49 | 274 | 2.0 | 6.0 | 0.00 | 0.00 | 0.00 | 77 | 1015.5 |
| 20260504215530 | 49 | 289 | 2.0 | 6.0 | 0.00 | 0.00 | 0.00 | 77 | 1015.5 |
| 20260504215030 | 49 | 283 | 3.0 | 6.0 | 0.00 | 0.00 | 0.00 | 77 | 1015.6 |
| 20260504214543 | 49 | 292 | 3.0 | 6.0 | 0.00 | 0.00 | 0.00 | 77 | 1015.5 |
| 20260504214030 | 49 | 273 | 2.0 | 5.0 | 0.00 | 0.00 | 0.00 | 77 | 1015.6 |
| 20260504213530 | 49 | 266 | 1.0 | 5.0 | 0.00 | 0.00 | 0.00 | 77 | 1015.6 |
| 20260504213038 | 49 | 264 | 1.0 | 5.0 | 0.00 | 0.00 | 0.00 | 76 | 1015.5 |
| 20260504212531 | 49 | 271 | 1.0 | 5.0 | 0.00 | 0.00 | 0.00 | 76 | 1015.6 |
| 20260504212033 | 50 | 245 | 1.0 | 6.0 | 0.00 | 0.00 | 0.00 | 76 | 1015.5 |
| 20260504211538 | 50 | 269 | 3.0 | 6.0 | 0.00 | 0.00 | 0.00 | 76 | 1015.5 |
| 20260504211031 | 50 | 295 | 3.0 | 6.0 | 0.00 | 0.00 | 0.00 | 76 | 1015.6 |
| 20260504210531 | 50 | 279 | 3.0 | 6.0 | 0.00 | 0.00 | 0.00 | 75 | 1015.6 |
| 20260504210037 | 50 | 271 | 2.0 | 6.0 | 0.00 | 0.00 | 0.00 | 75 | 1015.6 |
| 20260504205532 | 50 | 290 | 2.0 | 4.0 | 0.00 | 0.00 | 0.00 | 75 | 1015.7 |
| 20260504205027 | 50 | 266 | 1.0 | 4.0 | 0.00 | 0.00 | 0.00 | 75 | 1015.7 |
| 20260504204551 | 50 | 257 | 2.0 | 5.0 | 0.00 | 0.00 | 0.00 | 75 | 1015.7 |
| 20260504204027 | 50 | 270 | 2.0 | 5.0 | 0.00 | 0.00 | 0.00 | 74 | 1015.8 |
| 20260504203528 | 50 | 299 | 2.0 | 6.0 | 0.00 | 0.00 | 0.00 | 74 | 1015.8 |
| 20260504203043 | 50 | 0 | 1.0 | 6.0 | 0.00 | 0.00 | 0.00 | 74 | 1015.8 |
| 20260504202528 | 51 | 279 | 2.0 | 6.0 | 0.00 | 0.00 | 0.00 | 74 | 1015.7 |
| 20260504202031 | 51 | 309 | 2.0 | 6.0 | 0.00 | 0.00 | 0.00 | 74 | 1015.8 |
| 20260504201542 | 51 | 339 | 3.0 | 6.0 | 0.00 | 0.00 | 0.00 | 74 | 1015.7 |
| 20260504201031 | 51 | 306 | 3.0 | 5.0 | 0.00 | 0.00 | 0.00 | 73 | 1015.6 |
| 20260504200528 | 51 | 292 | 2.0 | 8.0 | 0.00 | 0.00 | 0.00 | 73 | 1015.8 |
| 20260504200044 | 51 | 316 | 3.0 | 8.0 | 0.00 | 0.00 | 0.00 | 73 | 1015.7 |
| 20260504195531 | 51 | 322 | 3.0 | 8.0 | 0.00 | 0.00 | 0.00 | 73 | 1015.6 |
| 20260504195031 | 51 | 272 | 3.0 | 8.0 | 0.00 | 0.00 | 0.00 | 72 | 1015.6 |
| 20260504194541 | 51 | 262 | 2.0 | 7.0 | 0.00 | 0.00 | 0.00 | 72 | 1015.7 |
| 20260504194031 | 51 | 305 | 2.0 | 8.0 | 0.00 | 0.00 | 0.00 | 71 | 1015.7 |
| 20260504193531 | 52 | 297 | 1.0 | 8.0 | 0.00 | 0.00 | 0.00 | 71 | 1015.5 |
| 20260504193037 | 52 | 291 | 2.0 | 8.0 | 0.00 | 0.00 | 0.00 | 70 | 1015.5 |
| 20260504192531 | 52 | 283 | 4.0 | 10.0 | 0.00 | 0.00 | 0.00 | 69 | 1015.5 |
| 20260504192030 | 52 | 283 | 4.0 | 10.0 | 0.00 | 0.00 | 0.00 | 68 | 1015.6 |
| 20260504191543 | 52 | 297 | 4.0 | 9.0 | 0.00 | 0.00 | 0.00 | 68 | 1015.4 |
| 20260504191033 | 52 | 282 | 4.0 | 9.0 | 0.00 | 0.00 | 0.00 | 68 | 1015.4 |
| 20260504190531 | 52 | 283 | 2.0 | 7.0 | 0.00 | 0.00 | 0.00 | 69 | 1015.5 |
| 20260504190043 | 52 | 271 | 2.0 | 8.0 | 0.00 | 0.00 | 0.00 | 69 | 1015.5 |
| 20260504185531 | 52 | 285 | 2.0 | 8.0 | 0.00 | 0.00 | 0.00 | 68 | 1015.2 |
| 20260504185031 | 52 | 351 | 3.0 | 10.0 | 0.00 | 0.00 | 0.00 | 68 | 1015.3 |
| 20260504184538 | 52 | 289 | 4.0 | 12.0 | 0.00 | 0.00 | 0.00 | 68 | 1015.2 |
| 20260504184031 | 52 | 288 | 3.0 | 12.0 | 0.00 | 0.00 | 0.00 | 68 | 1015.2 |
| 20260504183531 | 53 | 242 | 4.0 | 8.0 | 0.00 | 0.00 | 0.00 | 68 | 1015.3 |
| 20260504183037 | 53 | 302 | 3.0 | 7.0 | 0.00 | 0.00 | 0.00 | 68 | 1015.2 |
| 20260504182534 | 53 | 305 | 4.0 | 10.0 | 0.00 | 0.00 | 0.00 | 68 | 1015.3 |
| 20260504182030 | 53 | 296 | 3.0 | 10.0 | 0.00 | 0.00 | 0.00 | 68 | 1015.2 |
| 20260504181542 | 53 | 297 | 5.0 | 10.0 | 0.00 | 0.00 | 0.00 | 68 | 1015.3 |
| 20260504181033 | 53 | 313 | 3.0 | 9.0 | 0.00 | 0.00 | 0.00 | 67 | 1015.1 |
| 20260504180533 | 53 | 307 | 4.0 | 9.0 | 0.00 | 0.00 | 0.00 | 67 | 1015.2 |
| 20260504180044 | 53 | 286 | 4.0 | 10.0 | 0.00 | 0.00 | 0.00 | 67 | 1015.2 |
| 20260504175530 | 53 | 311 | 3.0 | 10.0 | 0.00 | 0.00 | 0.00 | 67 | 1015.2 |
| 20260504175031 | 53 | 339 | 6.0 | 13.0 | 0.00 | 0.00 | 0.00 | 65 | 1015.2 |
| 20260504174545 | 54 | 292 | 6.0 | 13.0 | 0.00 | 0.00 | 0.00 | 65 | 1015.2 |
| 20260504174030 | 54 | 255 | 3.0 | 9.0 | 0.00 | 0.00 | 0.00 | 65 | 1015.2 |
| 20260504173531 | 54 | 286 | 4.0 | 8.0 | 0.00 | 0.00 | 0.00 | 65 | 1015.1 |
| 20260504173036 | 54 | 288 | 3.0 | 11.0 | 0.00 | 0.00 | 0.00 | 65 | 1015.3 |
| 20260504172530 | 54 | 279 | 4.0 | 14.0 | 0.00 | 0.00 | 0.00 | 66 | 1015.1 |
| 20260504172119 | 54 | 230 | 7.0 | 14.0 | 0.00 | 0.00 | 0.00 | 64 | 1015.1 |
| 20260504171545 | 55 | 285 | 5.0 | 11.0 | 0.00 | 0.00 | 0.00 | 64 | 1015.1 |
| 20260504171128 | 54 | 236 | 3.0 | 11.0 | 0.00 | 0.00 | 0.00 | 65 | 1015.2 |
| 20260504170533 | 54 | 296 | 4.0 | 11.0 | 0.00 | 0.00 | 0.00 | 64 | 1015.2 |
| 20260504151030 | 56 | 284 | 4.0 | 14.0 | 0.00 | 0.00 | 0.00 | 59 | 1015.2 |
| 20260504150535 | 56 | 284 | 6.0 | 14.0 | 0.00 | 0.00 | 0.00 | 58 | 1015.1 |
| 20260504141031 | 55 | 296 | 3.0 | 11.0 | 0.00 | 0.00 | 0.00 | 56 | 1015.2 |
| 20260504140534 | 55 | 286 | 3.0 | 11.0 | 0.00 | 0.00 | 0.00 | 56 | 1015.3 |
| 20260504130534 | 55 | 288 | 3.0 | 9.0 | 0.00 | 0.00 | 0.00 | 57 | 1015.4 |
| 20260504110534 | 52 | 277 | 5.0 | 11.0 | 0.00 | 0.00 | 0.00 | 61 | 1015.7 |
| 20260504100531 | 51 | 302 | 4.0 | 9.0 | 0.00 | 0.00 | 0.00 | 64 | 1015.7 |
| 20260504081546 | 50 | 260 | 4.0 | 8.0 | 0.00 | 0.00 | 0.00 | 73 | 1015.5 |
| 20260504081031 | 50 | 296 | 3.0 | 8.0 | 0.00 | 0.00 | 0.00 | 73 | 1015.4 |
| 20260504080531 | 50 | 291 | 3.0 | 9.0 | 0.00 | 0.00 | 0.00 | 73 | 1015.5 |
| 20260504050533 | 45 | 0 | 0.0 | 0.0 | 0.00 | 0.00 | 0.00 | 85 | 1014.4 |
| 20260504045531 | 45 | 283 | 0.0 | 0.0 | 0.00 | 0.03 | 0.00 | 84 | 1014.4 |
| 20260504045035 | 45 | 0 | 0.0 | 0.0 | 0.00 | 0.03 | 0.00 | 84 | 1014.4 |
| 20260504044543 | 45 | 0 | 0.0 | 0.0 | 0.00 | 0.03 | 0.00 | 84 | 1014.5 |
| 20260504044035 | 45 | 0 | 0.0 | 0.0 | 0.00 | 0.03 | 0.00 | 84 | 1014.5 |
| 20260504043532 | 45 | 0 | 0.0 | 0.0 | 0.00 | 0.03 | 0.00 | 84 | 1014.5 |
| 20260504043041 | 46 | 0 | 0.0 | 0.0 | 0.00 | 0.03 | 0.00 | 84 | 1014.4 |
| 20260504042532 | 46 | 0 | 0.0 | 0.0 | 0.00 | 0.03 | 0.00 | 84 | 1014.5 |
| 20260504042031 | 46 | 0 | 0.0 | 1.0 | 0.00 | 0.03 | 0.00 | 84 | 1014.5 |
| 20260504041537 | 46 | 0 | 0.0 | 1.0 | 0.00 | 0.03 | 0.00 | 83 | 1014.5 |
| 20260504041031 | 46 | 0 | 0.0 | 1.0 | 0.00 | 0.03 | 0.00 | 83 | 1014.5 |
| 20260504040531 | 46 | 0 | 0.0 | 1.0 | 0.00 | 0.03 | 0.00 | 83 | 1014.5 |
| 20260504040039 | 46 | 0 | 0.0 | 1.0 | 0.00 | 0.03 | 0.00 | 83 | 1014.5 |
| 20260504035532 | 47 | 0 | 0.0 | 1.0 | 0.00 | 0.08 | 0.00 | 83 | 1014.5 |
| 20260504035032 | 47 | 0 | 0.0 | 1.0 | 0.00 | 0.08 | 0.00 | 83 | 1014.6 |
| 20260504034537 | 47 | 283 | 0.0 | 2.0 | 0.00 | 0.08 | 0.00 | 83 | 1014.6 |
| 20260504034031 | 47 | 285 | 0.0 | 2.0 | 0.00 | 0.08 | 0.00 | 83 | 1014.6 |
| 20260504033531 | 47 | 281 | 1.0 | 2.0 | 0.00 | 0.08 | 0.00 | 83 | 1014.7 |
| 20260504033043 | 47 | 279 | 1.0 | 2.0 | 0.00 | 0.08 | 0.00 | 83 | 1014.6 |
| 20260504032533 | 47 | 289 | 0.0 | 2.0 | 0.00 | 0.08 | 0.00 | 83 | 1014.5 |
| 20260504032031 | 47 | 297 | 0.0 | 2.0 | 0.00 | 0.08 | 0.00 | 82 | 1014.6 |
| 20260504031541 | 47 | 297 | 0.0 | 2.0 | 0.00 | 0.08 | 0.00 | 82 | 1014.6 |
| 20260504031030 | 47 | 0 | 0.0 | 2.0 | 0.00 | 0.08 | 0.00 | 82 | 1014.7 |
| 20260504030531 | 47 | 283 | 1.0 | 3.0 | 0.00 | 0.08 | 0.00 | 82 | 1014.6 |
| 20260504030043 | 47 | 288 | 1.0 | 3.0 | 0.00 | 0.08 | 0.00 | 82 | 1014.5 |
| 20260504025531 | 47 | 284 | 1.0 | 2.0 | 0.00 | 0.11 | 0.00 | 82 | 1014.6 |
| 20260504025031 | 47 | 349 | 0.0 | 2.0 | 0.00 | 0.11 | 0.00 | 82 | 1014.4 |
| 20260504024549 | 47 | 13 | 0.0 | 1.0 | 0.00 | 0.11 | 0.00 | 82 | 1014.5 |
| 20260504024033 | 47 | 13 | 0.0 | 1.0 | 0.00 | 0.11 | 0.00 | 82 | 1014.5 |
| 20260504023531 | 47 | 0 | 0.0 | 1.0 | 0.00 | 0.11 | 0.00 | 82 | 1014.5 |
| 20260504023043 | 47 | 0 | 0.0 | 1.0 | 0.00 | 0.11 | 0.00 | 82 | 1014.5 |
| 20260504022533 | 47 | 0 | 0.0 | 1.0 | 0.00 | 0.11 | 0.00 | 82 | 1014.4 |
| 20260504022033 | 47 | 0 | 0.0 | 1.0 | 0.00 | 0.11 | 0.00 | 82 | 1014.3 |
| 20260504021538 | 47 | 0 | 0.0 | 0.0 | 0.00 | 0.11 | 0.00 | 82 | 1014.4 |
| 20260504021032 | 47 | 0 | 0.0 | 0.0 | 0.00 | 0.11 | 0.00 | 82 | 1014.4 |
| 20260504020531 | 47 | 0 | 0.0 | 1.0 | 0.00 | 0.11 | 0.00 | 82 | 1014.4 |
| 20260504020057 | 47 | 0 | 0.0 | 1.0 | 0.00 | 0.11 | 0.00 | 82 | 1014.4 |
| 20260504015532 | 47 | 0 | 0.0 | 0.0 | 0.00 | 0.14 | 0.00 | 82 | 1014.4 |
| 20260504015031 | 47 | 0 | 0.0 | 0.0 | 0.00 | 0.14 | 0.00 | 82 | 1014.3 |
| 20260504014554 | 47 | 0 | 0.0 | 0.0 | 0.00 | 0.14 | 0.00 | 83 | 1014.4 |
| 20260504014031 | 47 | 0 | 0.0 | 0.0 | 0.00 | 0.14 | 0.00 | 83 | 1014.5 |
| 20260504013531 | 47 | 0 | 0.0 | 0.0 | 0.00 | 0.14 | 0.00 | 83 | 1014.3 |
| 20260504013055 | 47 | 0 | 0.0 | 0.0 | 0.00 | 0.14 | 0.00 | 83 | 1014.3 |
| 20260504012531 | 47 | 0 | 0.0 | 0.0 | 0.00 | 0.14 | 0.00 | 83 | 1014.4 |
| 20260504012030 | 47 | 0 | 0.0 | 0.0 | 0.00 | 0.14 | 0.00 | 83 | 1014.3 |
| 20260504011545 | 47 | 0 | 0.0 | 0.0 | 0.00 | 0.14 | 0.00 | 83 | 1014.3 |
| 20260504011030 | 47 | 0 | 0.0 | 0.0 | 0.00 | 0.14 | 0.00 | 83 | 1014.3 |
| 20260504010533 | 47 | 0 | 0.0 | 0.0 | 0.00 | 0.14 | 0.00 | 83 | 1014.3 |
| 20260504010045 | 47 | 0 | 0.0 | 0.0 | 0.00 | 0.14 | 0.00 | 83 | 1014.3 |
| 20260504005531 | 47 | 0 | 0.0 | 0.0 | 0.00 | 0.18 | 0.00 | 83 | 1014.2 |
| 20260504005032 | 48 | 0 | 0.0 | 0.0 | 0.00 | 0.18 | 0.00 | 83 | 1014.2 |
| 20260504004618 | 48 | 0 | 0.0 | 0.0 | 0.00 | 0.18 | 0.00 | 83 | 1014.2 |
| 20260504004027 | 48 | 0 | 0.0 | 1.0 | 0.00 | 0.18 | 0.00 | 83 | 1014.2 |
| 20260504003532 | 48 | 0 | 0.0 | 1.0 | 0.00 | 0.18 | 0.00 | 83 | 1014.3 |
| 20260504003040 | 48 | 0 | 0.0 | 1.0 | 0.00 | 0.18 | 0.00 | 82 | 1014.2 |
| 20260504002531 | 47 | 0 | 0.0 | 0.0 | 0.00 | 0.18 | 0.00 | 82 | 1014.3 |
| 20260504002031 | 48 | 0 | 0.0 | 0.0 | 0.00 | 0.18 | 0.00 | 82 | 1014.3 |
| 20260504001615 | 48 | 0 | 0.0 | 0.0 | 0.00 | 0.18 | 0.00 | 82 | 1014.3 |
| 20260504001033 | 47 | 0 | 0.0 | 0.0 | 0.00 | 0.18 | 0.00 | 82 | 1014.3 |
| 20260504000534 | 47 | 0 | 0.0 | 0.0 | 0.00 | 0.18 | 0.00 | 82 | 1014.3 |
| 20260504000045 | 47 | 0 | 0.0 | 0.0 | 0.00 | 0.18 | 0.00 | 82 | 1014.3 |
| 20260503235531 | 48 | 0 | 0.0 | 0.0 | 0.00 | 0.19 | 0.00 | 82 | 1014.3 |
| 20260503235031 | 48 | 0 | 0.0 | 0.0 | 0.00 | 0.19 | 0.00 | 82 | 1014.3 |
| 20260503234539 | 48 | 0 | 0.0 | 0.0 | 0.00 | 0.19 | 0.00 | 82 | 1014.2 |
| 20260503234031 | 48 | 0 | 0.0 | 0.0 | 0.00 | 0.19 | 0.00 | 82 | 1014.3 |
| 20260503233529 | 48 | 0 | 0.0 | 0.0 | 0.00 | 0.19 | 0.00 | 82 | 1014.2 |
| 20260503233041 | 47 | 0 | 0.0 | 0.0 | 0.00 | 0.19 | 0.00 | 82 | 1014.2 |
| 20260503232527 | 47 | 0 | 0.0 | 0.0 | 0.00 | 0.19 | 0.00 | 82 | 1014.3 |
| 20260503232031 | 47 | 0 | 0.0 | 1.0 | 0.00 | 0.19 | 0.00 | 82 | 1014.3 |